Location: Grand Moustoir
(47.8355°N, 3.3120°W)
Time: 18:53:57
(UTC+00:00)

USA 238 DEB - Pass Details

Date: 20 January 2020
Orbit: 1021 x 1191 km, 63.4° (Epoch: 20 February)

Event Time Altitude Azimuth Distance (km) Brightness Sun altitude
Exits shadow 04:51:10 45° 344° (NNW) 1,504 4.3 -30.3°
Maximum altitude 04:53:21 64° 44° (NE) 1,257 4.1 -29.9°
Drops below altitude 10° 05:00:41 10° 126° (SE) 3,085 6.7 -28.7°
Sets 05:03:29 0° 129° (SE) 4,059 7.4 -28.2°
